Temp
-7 -7 -7 -7 -7 -7 -7 -7 -7 -7 -6 -7 -7 -6 -6 -5 -5 -5 -5 -5 -6 -6 -6 -6 -6 -6 -5 -5 -6 -6 -5 -5 -6 -7 -7 -6 -6 -7 -7 -7 -7 -7 -7 -7
-8 -7 -8 -8 -7 -7 -7 -7 -8 -7 -7 -7 -7 -6 -6 -6 -5 -4 -5 -4 -5 -6 -6 -6 -6 -6 -6 -6 -5 -5 -5 -5 -5 -6 -6 -6 -6 -7 -7 -7 -7 -7 -7 -7
-8 -8 -8 -8 -8 -7 -7 -7 -9 -8 -6 -7 -6 -7 -7 -7 -6 -5 -5 -5 -6 -6 -6 -6 -7 -6 -6 -6 -6 -5 -5 -6 -6 -6 -7 -7 -7 -7 -7 -6 -6 -6 -7 -7
-8 -8 -8 -8 -8 -8 -8 -8 -8 -8 -7 -7 -7 -7 -7 -7 -7 -6 -5 -6 -6 -6 -6 -6 -6 -7 -6 -7 -7 -6 -5 -5 -6 -7 -7 -6 -6 -6 -6 -6 -6 -6 -6 -7
-8 -8 -8 -8 -8 -8 -9 -8 -9 -8 -8 -7 -7 -7 -7 -7 -8 -7 -7 -6 -6 -5 -6 -6 -6 -6 -6 -7 -6 -7 -6 -5 -6 -7 -6 -6 -7 -7 -7 -6 -6 -6 -6 -6
-9 -9 -8 -8 -8 -9 -9 -9 -9 -9 -9 -8 -8 -8 -8 -8 -8 -7 -7 -7 -6 -6 -7 -7 -6 -5 -5 -6 -6 -6 -6 -6 -6 -6 -6 -6 -7 -7 -7 -6 -6 -6 -6 -6
-9 -9 -9 -9 -8 -9 -8 -9 -9 -9 -10 -9 -9 -9 -8 -8 -7 -7 -7 -7 -7 -6 -7 -7 -6 -6 -6 -7 -6 -6 -6 -6 -6 -6 -6 -6 -6 -6 -6 -6 -6 -5 -6 -6
-10 -9 -9 -9 -9 -9 -9 -9 -9 -9 -9 -10 -10 -9 -8 -8 -7 -8 -8 -7 -7 -7 -7 -7 -6 -6 -6 -7 -7 -6 -6 -6 -6 -6 -6 -6 -6 -6 -6 -6 -6 -5 -6 -5
-11 -10 -9 -9 -9 -9 -9 -9 -9 -9 -9 -9 -9 -9 -8 -8 -8 -8 -8 -8 -7 -7 -7 -7 -7 -6 -6 -7 -7 -7 -7 -6 -6 -6 -6 -6 -6 -6 -6 -6 -6 -6 -6 -6
-11 -11 -10 -10 -10 -10 -10 -10 -10 -10 -9 -9 -9 -9 -9 -8 -8 -8 -8 -8 -7 -8 -8 -7 -7 -7 -6 -6 -7 -8 -7 -7 -7 -7 -6 -6 -7 -6 -6 -6 -6 -6 -6 -6
-13 -12 -12 -11 -11 -11 -11 -11 -10 -11 -10 -10 -9 -8 -8 -8 -8 -7 -8 -8 -8 -8 -8 -8 -8 -7 -7 -6 -6 -7 -7 -7 -6 -7 -6 -6 -6 -7 -6 -6 -6 -6 -6 -6
-14 -14 -13 -12 -12 -12 -11 -11 -11 -11 -10 -10 -10 -9 -8 -8 -8 -8 -8 -7 -7 -8 -8 -8 -9 -7 -7 -7 -6 -6 -6 -6 -6 -7 -6 -6 -6 -6 -6 -6 -6 -6 -6 -6
-15 -15 -14 -13 -13 -12 -12 -11 -11 -11 -11 -10 -10 -9 -9 -9 -9 -8 -8 -7 -7 -7 -8 -8 -8 -8 -7 -7 -7 -6 -6 -6 -6 -6 -6 -6 -6 -6 -7 -6 -6 -6 -6 -6
-16 -15 -14 -14 -14 -13 -13 -12 -12 -12 -11 -10 -10 -9 -9 -9 -9 -9 -9 -8 -8 -7 -8 -8 -8 -8 -7 -7 -6 -7 -7 -7 -6 -6 -7 -5 -5 -6 -6 -6 -6 -6 -6 -6
-15 -15 -14 -14 -13 -14 -13 -13 -13 -12 -12 -12 -11 -11 -10 -10 -10 -10 -10 -10 -9 -8 -8 -8 -8 -7 -7 -7 -7 -7 -7 -7 -7 -6 -5 -6 -6 -5 -5 -5 -6 -6 -6 -6
-15 -15 -15 -14 -14 -14 -14 -14 -13 -13 -13 -13 -12 -11 -12 -11 -10 -10 -10 -11 -10 -9 -9 -9 -8 -8 -8 -7 -7 -7 -8 -7 -6 -6 -6 -6 -6 -5 -5 -5 -5 -6 -5 -6
-15 -15 -14 -14 -14 -14 -14 -14 -14 -14 -14 -14 -14 -13 -12 -13 -12 -12 -11 -10 -10 -10 -10 -9 -9 -8 -8 -7 -7 -7 -7 -7 -8 -7 -7 -7 -6 -6 -6 -6 -5 -5 -5 -5
-15 -15 -14 -14 -14 -14 -14 -14 -14 -14 -14 -14 -14 -14 -13 -13 -13 -12 -12 -11 -11 -10 -10 -10 -10 -9 -9 -8 -7 -7 -7 -8 -8 -7 -7 -7 -7 -7 -7 -6 -6 -6 -6 -5
-14 -14 -14 -14 -14 -14 -14 -14 -14 -15 -15 -15 -15 -14 -14 -14 -13 -13 -12 -12 -12 -11 -11 -10 -10 -10 -9 -9 -8 -8 -8 -8 -8 -8 -8 -8 -8 -7 -7 -6 -6 -6 -6 -6
-15 -15 -15 -15 -15 -15 -15 -15 -15 -15 -15 -15 -15 -14 -14 -14 -13 -13 -13 -12 -12 -12 -11 -11 -11 -10 -10 -9 -9 -8 -8 -7 -8 -7 -8 -8 -9 -8 -8 -7 -7 -6 -6 -6
-16 -16 -16 -16 -16 -16 -16 -16 -16 -16 -15 -15 -14 -14 -14 -14 -14 -14 -13 -12 -12 -12 -12 -11 -11 -11 -11 -10 -9 -9 -8 -8 -8 -8 -8 -8 -8 -8 -8 -7 -7 -7 -6 -6
-16 -16 -16 -16 -16 -16 -16 -16 -16 -16 -15 -15 -15 -15 -15 -15 -16 -16 -14 -13 -12 -12 -12 -12 -12 -12 -11 -11 -10 -9 -9 -8 -8 -8 -8 -8 -9 -9 -9 -8 -8 -7 -7 -7
-16 -16 -16 -17 -17 -17 -17 -17 -16 -16 -16 -16 -16 -16 -16 -16 -17 -18 -18 -17 -16 -13 -12 -12 -12 -12 -12 -12 -11 -10 -9 -9 -8 -8 -8 -8 -8 -8 -9 -9 -9 -9 -8 -7
-17 -17 -17 -17 -17 -17 -17 -17 -17 -17 -17 -17 -17 -17 -17 -17 -17 -18 -19 -20 -20 -19 -16 -14 -13 -13 -13 -12 -12 -11 -10 -9 -8 -8 -8 -8 -8 -8 -8 -7 -8 -8 -8 -8
-17 -17 -17 -18 -18 -17 -17 -18 -18 -18 -18 -18 -18 -18 -18 -17 -17 -17 -19 -20 -20 -20 -19 -17 -15 -14 -14 -13 -12 -12 -11 -10 -9 -9 -9 -8 -9 -8 -8 -7 -9 -8 -9 -8
-18 -18 -18 -18 -18 -18 -18 -18 -18 -19 -18 -18 -18 -19 -19 -18 -18 -18 -18 -19 -20 -20 -19 -19 -17 -15 -15 -14 -13 -12 -11 -11 -10 -9 -9 -9 -10 -9 -9 -9 -9 -8 -8 -9
Height
5831 5836 5842 5844 5848 5852 5857 5859 5862 5865 5870 5875 5878 5880 5882 5887 5889 5890 5895 5896 5896 5897 5897 5900 5905 5909 5912 5913 5914 5915 5918 5920 5922 5925 5928 5930 5931 5932 5933 5934 5937 5938 5939 5938
5827 5832 5835 5838 5843 5847 5850 5853 5857 5861 5866 5872 5875 5879 5883 5885 5888 5889 5892 5895 5895 5897 5897 5899 5904 5908 5909 5911 5914 5916 5917 5921 5922 5925 5929 5932 5932 5933 5933 5936 5938 5939 5939 5939
5822 5827 5829 5834 5838 5843 5847 5850 5851 5856 5862 5868 5874 5878 5882 5885 5886 5889 5890 5891 5892 5896 5897 5898 5902 5904 5907 5911 5915 5915 5917 5920 5923 5925 5928 5931 5932 5934 5934 5938 5940 5941 5940 5941
5816 5820 5824 5829 5835 5840 5845 5847 5848 5851 5857 5864 5871 5875 5878 5883 5885 5887 5888 5888 5890 5894 5898 5898 5899 5901 5905 5905 5910 5916 5917 5920 5924 5925 5927 5930 5932 5934 5934 5939 5941 5941 5941 5943
5811 5814 5820 5825 5832 5836 5839 5841 5843 5846 5852 5859 5865 5873 5877 5882 5884 5884 5884 5885 5888 5890 5894 5897 5899 5900 5901 5908 5908 5913 5917 5919 5923 5926 5927 5929 5932 5934 5936 5938 5940 5941 5942 5945
5803 5808 5815 5821 5824 5830 5833 5838 5841 5843 5847 5855 5860 5868 5875 5875 5873 5875 5877 5881 5884 5886 5890 5894 5896 5898 5900 5904 5909 5912 5916 5919 5922 5925 5927 5930 5932 5934 5936 5939 5942 5941 5943 5945
5797 5803 5809 5814 5818 5823 5828 5833 5837 5841 5843 5851 5855 5864 5867 5870 5874 5875 5876 5878 5879 5883 5886 5891 5894 5898 5901 5904 5908 5912 5915 5919 5921 5924 5926 5929 5932 5934 5936 5938 5942 5943 5944 5946
5790 5797 5802 5807 5811 5817 5822 5828 5832 5834 5839 5846 5850 5856 5861 5866 5869 5871 5874 5878 5881 5881 5883 5886 5890 5894 5897 5900 5905 5908 5913 5916 5920 5922 5924 5926 5929 5932 5936 5937 5940 5943 5944 5946
5784 5789 5794 5800 5804 5810 5814 5820 5827 5829 5835 5840 5844 5847 5855 5859 5863 5867 5870 5874 5877 5879 5882 5884 5887 5891 5894 5898 5902 5905 5908 5913 5917 5919 5923 5924 5927 5930 5933 5937 5939 5942 5944 5945
5778 5782 5786 5792 5797 5802 5807 5814 5819 5824 5828 5831 5836 5841 5845 5854 5859 5863 5866 5870 5873 5877 5881 5883 5884 5886 5889 5892 5896 5899 5902 5906 5911 5915 5919 5924 5923 5926 5930 5935 5938 5940 5943 5946
5772 5775 5779 5784 5788 5794 5800 5805 5811 5818 5823 5824 5829 5835 5839 5847 5854 5857 5862 5866 5869 5873 5879 5881 5881 5881 5883 5886 5891 5896 5898 5902 5907 5913 5915 5920 5924 5924 5927 5932 5936 5938 5940 5944
5766 5768 5772 5778 5782 5786 5792 5797 5803 5809 5817 5820 5823 5830 5832 5840 5847 5852 5856 5861 5865 5868 5872 5876 5878 5878 5879 5881 5884 5889 5893 5896 5901 5906 5910 5914 5917 5920 5925 5929 5932 5935 5938 5940
5761 5765 5767 5770 5776 5780 5784 5789 5796 5802 5808 5813 5818 5823 5828 5834 5839 5845 5850 5854 5858 5862 5865 5869 5873 5876 5876 5878 5881 5886 5888 5891 5895 5900 5904 5909 5912 5917 5920 5923 5928 5931 5934 5937
5755 5759 5762 5766 5769 5773 5777 5782 5788 5795 5800 5805 5808 5815 5820 5825 5832 5836 5841 5846 5849 5854 5858 5863 5867 5870 5872 5874 5876 5880 5884 5887 5889 5893 5896 5901 5906 5909 5913 5916 5920 5925 5929 5932
5750 5753 5757 5760 5763 5766 5771 5775 5780 5786 5791 5795 5800 5806 5810 5815 5821 5827 5832 5837 5840 5844 5850 5855 5858 5862 5866 5869 5870 5872 5876 5880 5883 5886 5890 5895 5899 5902 5905 5908 5912 5917 5923 5927
5747 5751 5754 5756 5758 5760 5763 5768 5773 5778 5782 5787 5790 5795 5799 5804 5809 5816 5822 5827 5832 5836 5840 5846 5849 5853 5858 5862 5865 5867 5869 5873 5875 5879 5884 5887 5891 5894 5899 5903 5906 5910 5915 5920
5742 5745 5748 5751 5752 5753 5758 5761 5764 5770 5774 5778 5782 5783 5786 5792 5796 5802 5809 5814 5820 5825 5830 5836 5840 5843 5848 5853 5857 5861 5862 5864 5869 5872 5876 5880 5882 5887 5892 5896 5900 5904 5909 5913
5735 5738 5741 5744 5745 5747 5751 5754 5757 5761 5764 5768 5770 5771 5774 5777 5783 5788 5794 5801 5807 5812 5816 5822 5828 5833 5837 5842 5847 5851 5854 5859 5861 5864 5867 5871 5874 5878 5883 5887 5893 5897 5901 5906
5727 5730 5732 5735 5737 5740 5742 5746 5748 5750 5754 5757 5759 5760 5763 5764 5767 5773 5778 5785 5792 5799 5804 5808 5813 5820 5826 5830 5836 5839 5843 5847 5850 5855 5859 5863 5866 5869 5872 5879 5883 5888 5892 5897
5719 5722 5725 5727 5729 5731 5734 5734 5735 5738 5742 5745 5746 5746 5747 5748 5750 5755 5760 5767 5774 5782 5788 5794 5799 5805 5812 5817 5823 5828 5832 5836 5839 5845 5850 5854 5858 5861 5865 5869 5874 5878 5883 5887
5712 5714 5716 5718 5720 5723 5723 5724 5725 5729 5735 5728 5730 5730 5732 5731 5731 5733 5738 5746 5754 5762 5770 5777 5783 5789 5796 5803 5809 5815 5820 5825 5830 5832 5836 5842 5848 5853 5858 5861 5864 5869 5873 5877
5707 5708 5709 5711 5711 5713 5712 5713 5715 5715 5715 5713 5713 5714 5715 5714 5714 5710 5713 5720 5729 5738 5749 5758 5766 5772 5779 5787 5794 5800 5806 5812 5817 5821 5824 5830 5836 5841 5847 5851 5855 5859 5862 5865
5702 5703 5704 5705 5704 5703 5703 5704 5702 5701 5699 5699 5700 5699 5698 5697 5696 5695 5693 5695 5702 5712 5723 5734 5746 5754 5761 5768 5776 5783 5790 5798 5804 5810 5814 5818 5822 5828 5834 5839 5843 5848 5852 5856
5701 5700 5699 5698 5698 5696 5695 5694 5694 5692 5689 5687 5685 5685 5683 5681 5680 5681 5681 5679 5682 5689 5698 5707 5722 5735 5742 5749 5757 5764 5772 5783 5790 5798 5802 5808 5813 5815 5820 5828 5832 5835 5841 5847
5696 5696 5695 5694 5692 5690 5689 5687 5686 5684 5681 5678 5675 5671 5669 5666 5665 5666 5668 5667 5667 5671 5677 5685 5697 5712 5724 5728 5736 5745 5754 5764 5774 5782 5787 5792 5799 5805 5810 5812 5819 5826 5831 5836
5690 5689 5689 5688 5686 5684 5682 5680 5677 5675 5673 5670 5666 5662 5658 5654 5650 5650 5652 5652 5651 5655 5661 5667 5675 5686 5700 5709 5718 5726 5737 5748 5758 5766 5772 5780 5787 5794 5794 5800 5809 5815 5822 5826
Wind_Speed
30 27 21 23 26 27 26 26 24 21 22 21 21 22 17 10 8 13 15 12 10 13 18 18 17 19 19 18 17 21 21 20 17 15 10 8 11 10 9 10 12 12 13 13
26 26 29 27 26 26 27 29 26 27 23 20 23 20 17 14 11 14 19 15 10 12 17 18 17 17 19 20 20 23 21 18 17 16 11 8 9 9 10 11 11 15 15 15
25 26 28 30 29 27 27 28 30 29 26 22 17 18 16 13 14 14 16 14 15 13 19 21 19 19 17 15 15 21 23 20 16 15 12 11 11 11 14 12 14 15 16 16
27 29 29 28 29 28 24 25 29 32 28 26 21 17 15 16 16 15 18 15 16 17 14 22 25 22 21 22 20 18 24 21 17 18 17 15 12 11 15 15 15 15 17 16
29 30 30 29 26 24 27 29 30 31 30 27 24 19 14 10 9 14 16 16 16 16 20 22 27 25 23 21 22 21 23 21 18 19 17 15 12 12 13 15 17 16 15 15
30 31 31 29 31 27 29 30 30 31 32 28 26 22 17 17 26 23 20 14 11 12 22 21 23 25 22 23 20 22 22 25 21 19 17 17 15 16 15 15 15 18 16 15
33 32 31 31 32 32 31 30 31 34 36 30 30 23 23 26 24 20 16 14 15 14 23 19 22 24 21 20 23 21 22 26 26 22 20 18 16 16 17 16 14 17 16 15
35 35 33 32 33 32 33 33 32 34 34 35 35 31 27 24 25 24 20 15 9 13 26 20 22 25 21 20 22 23 22 25 29 25 23 20 18 17 17 17 16 13 14 14
34 35 35 34 34 33 34 34 34 36 37 34 36 37 31 29 28 28 25 22 18 18 27 21 19 21 20 20 21 24 24 24 27 29 25 24 21 19 20 18 17 16 16 15
34 35 36 37 35 34 35 36 36 36 37 38 37 36 37 32 32 32 29 25 24 18 24 22 19 21 22 22 24 24 28 25 27 29 29 25 26 24 22 20 18 18 18 17
32 33 36 37 38 36 36 36 37 38 38 39 39 38 37 34 33 34 34 30 27 25 21 19 24 26 27 26 25 25 24 28 27 27 30 30 26 26 24 22 21 20 20 19
22 28 31 33 35 36 36 37 37 38 37 39 40 39 39 36 34 34 34 31 33 32 30 30 28 30 31 29 28 27 26 27 30 30 31 33 31 28 26 24 24 23 21 20
24 25 29 33 35 36 37 37 36 37 37 39 39 40 38 37 35 35 35 33 31 30 31 34 36 35 33 34 32 29 29 28 31 32 32 34 36 33 29 28 27 25 24 23
26 30 33 35 37 36 37 37 37 35 37 38 41 40 39 37 33 35 35 38 38 36 32 33 40 40 38 35 36 36 34 31 31 32 37 36 37 37 36 34 32 30 29 28
28 30 33 36 36 38 38 37 38 37 36 38 41 40 40 40 37 34 38 37 41 40 38 39 41 39 40 40 36 39 40 40 38 35 33 38 37 37 39 40 37 36 33 31
24 21 20 23 30 35 39 40 39 39 38 38 39 41 40 41 42 40 38 46 49 47 46 44 44 45 39 41 37 37 39 43 43 42 36 36 39 39 39 41 42 41 38 36
23 21 20 20 22 28 31 34 36 38 40 41 42 44 46 45 46 45 44 46 53 52 51 50 48 49 47 43 43 43 44 46 48 46 41 41 38 37 40 42 44 43 41 39
26 27 27 27 26 29 30 29 30 32 33 35 37 41 46 51 52 53 52 49 50 58 57 56 54 52 52 49 42 45 39 42 46 52 47 45 42 37 37 40 43 44 44 42
28 27 27 26 32 32 34 32 34 36 37 38 40 44 47 52 54 56 58 57 55 54 62 61 57 56 54 52 49 46 47 43 43 55 58 51 48 43 39 39 40 46 46 45
27 29 28 28 30 34 35 37 39 40 40 41 43 46 50 54 60 62 64 64 62 60 60 66 63 59 59 56 52 49 48 47 37 50 58 54 53 48 42 40 41 43 48 49
19 22 23 26 29 31 33 36 38 39 38 42 45 48 51 54 57 61 66 70 70 68 65 66 67 64 60 58 57 54 53 55 50 48 50 56 58 51 45 44 45 46 45 49
10 12 15 19 23 27 28 30 32 34 38 41 45 47 50 51 48 54 63 69 75 76 72 71 71 69 67 63 62 61 58 57 50 50 48 57 62 63 53 49 47 45 45 46
8 7 8 11 13 16 20 23 28 33 36 39 41 46 47 48 48 48 51 61 74 80 81 77 74 74 72 70 68 68 64 60 56 55 53 51 58 59 54 52 48 42 43 44
8 9 10 12 13 15 18 20 22 27 31 35 41 44 45 50 50 49 45 50 54 67 81 83 80 75 77 75 73 72 71 65 62 59 57 61 62 65 61 61 55 47 43 41
17 17 20 21 20 20 23 25 26 27 26 30 34 39 43 46 51 49 46 45 53 51 60 79 84 81 78 81 79 78 76 73 64 64 58 49 65 67 68 49 28 39 32 41
26 25 24 25 27 27 27 30 30 29 29 29 28 30 36 39 44 48 46 45 47 52 46 56 79 84 83 82 83 82 81 71 69 65 62 66 63 58 50 39 32 34 36 41
Wind_Direction
216 217 215 215 214 215 217 220 217 218 218 213 216 223 228 224 195 157 184 176 175 190 192 208 193 186 173 175 171 169 169 161 161 166 154 151 142 132 112 103 118 119 113 100
215 214 215 214 212 211 209 214 217 216 215 216 220 224 224 223 205 170 165 198 197 181 196 211 210 191 182 177 178 174 171 171 165 172 158 160 148 135 126 122 125 125 114 106
216 215 216 215 214 214 212 212 214 224 215 215 217 218 213 210 218 198 186 205 201 175 196 206 202 200 195 179 192 182 175 175 178 166 167 166 161 158 140 139 134 131 120 115
219 216 217 216 215 214 213 211 217 224 228 219 213 211 214 206 209 207 208 210 203 205 206 210 209 197 205 188 186 196 181 179 178 173 174 178 173 158 142 148 147 133 125 120
221 220 219 219 218 212 209 212 214 222 227 226 222 211 210 219 214 200 200 200 195 222 209 208 210 205 208 211 186 189 194 181 182 185 181 178 172 162 159 154 149 142 135 130
220 221 221 218 219 211 212 213 220 224 227 226 227 218 206 183 191 199 202 194 197 220 184 203 209 218 209 209 204 192 190 189 189 192 183 176 178 172 169 164 168 151 152 148
223 222 221 221 223 219 218 212 215 221 227 228 228 223 217 212 215 210 203 204 204 215 197 205 217 219 212 208 205 197 195 193 194 195 195 182 185 185 178 169 182 169 158 157
224 223 223 220 223 222 221 218 218 222 226 226 226 230 224 219 221 210 211 214 215 229 196 190 211 217 209 205 209 197 199 198 200 201 198 193 190 195 191 181 182 192 173 172
220 224 225 223 225 221 222 220 220 222 226 225 226 228 225 218 218 220 220 219 215 192 195 199 204 210 211 204 212 206 198 201 205 206 207 198 194 199 198 197 191 193 195 186
219 221 222 221 220 220 218 222 218 221 227 229 230 231 232 225 220 222 223 214 214 208 202 205 205 206 209 203 207 211 202 201 205 206 210 215 202 200 204 203 204 203 203 200
220 222 222 221 220 220 217 217 218 220 223 230 235 234 238 233 227 227 226 223 219 216 216 217 218 206 204 200 208 215 212 211 212 212 211 213 215 210 206 209 215 214 211 210
216 217 222 224 225 225 225 222 224 224 224 227 234 236 239 238 234 236 238 234 227 223 223 218 211 214 207 205 204 205 210 213 212 217 215 214 214 212 212 215 218 222 222 216
212 211 216 222 224 229 230 229 227 228 230 231 235 238 238 239 238 235 237 240 239 233 223 219 214 217 221 214 210 209 211 216 220 216 221 221 216 215 217 216 223 224 225 227
205 212 217 222 223 227 230 233 233 231 231 235 237 239 239 238 236 237 234 231 236 237 231 224 220 221 225 225 221 219 220 219 220 227 221 223 222 218 219 222 224 224 225 227
203 208 217 227 232 231 231 234 236 237 236 236 239 239 241 242 237 229 228 228 230 230 225 222 226 232 232 229 226 221 223 225 225 227 224 222 225 223 221 223 222 225 226 227
205 204 207 222 231 235 236 238 239 239 243 245 244 245 243 243 241 234 225 220 221 227 224 221 226 227 234 229 228 231 232 229 232 228 226 225 226 226 227 228 227 226 227 227
217 227 225 222 228 232 234 238 241 244 247 248 249 250 247 245 243 240 232 224 220 222 227 229 229 227 231 229 229 230 234 235 230 227 225 228 228 228 230 230 233 232 231 230
235 238 239 239 240 237 233 234 238 240 242 245 249 251 253 254 252 245 239 233 226 223 225 229 232 234 231 230 229 236 238 241 236 224 222 230 230 229 232 231 232 235 235 233
252 251 249 244 236 242 240 245 246 245 248 249 250 253 255 257 257 257 250 239 233 226 223 225 227 232 233 231 232 237 236 246 239 227 226 233 233 231 232 233 233 233 235 236
249 245 246 244 237 241 247 251 253 254 255 256 255 256 259 262 260 256 254 248 240 231 225 225 227 226 229 232 237 233 237 240 235 228 231 236 231 230 234 235 237 237 234 233
247 242 244 246 247 248 252 255 257 259 263 265 264 262 263 265 263 259 252 248 244 240 230 224 227 228 226 229 234 232 238 239 235 233 229 224 229 229 234 239 238 238 238 238
231 240 250 257 260 263 266 265 263 264 265 268 268 267 264 262 270 269 250 243 240 239 237 229 225 226 228 228 229 233 236 236 230 230 233 228 228 226 235 235 235 234 235 237
219 228 242 257 267 272 279 278 275 272 270 271 272 273 269 263 267 276 266 250 235 231 234 232 226 224 223 225 227 228 232 231 233 228 232 228 222 224 222 224 227 230 230 233
285 284 279 278 281 284 291 296 291 290 288 278 269 269 269 263 266 270 269 259 252 241 231 231 228 224 222 222 225 225 229 228 228 234 231 229 225 225 226 227 230 226 225 233
269 273 281 282 282 286 292 296 292 290 294 289 288 277 272 267 263 267 266 260 255 250 244 233 228 224 222 224 223 225 226 227 226 225 235 225 227 231 229 228 228 236 242 237
266 270 270 276 277 280 284 286 290 291 294 293 286 288 279 271 268 265 265 261 255 249 248 246 237 227 223 223 224 224 224 225 228 225 230 237 230 234 219 217 235 246 249 242